Clinton, MO

11:08 AM CDT on April 25, 2017 (GMT -0500)
Clinton Memorial

Weather History for KGLY - January, 2012

Change the Weather History Date:

Wednesday, January 11, 2012

  Actual Average (KSZL) Record (KSZL)
Temperature  
Mean Temperature 42 °F -  
Max Temperature 57 °F 36 °F 69 °F (2017)
Min Temperature 26 °F 20 °F -5 °F (1997)
Degree Days  
Heating Degree Days 24    
Moisture  
Dew Point 30 °F    
Average Humidity 71    
Maximum Humidity 100    
Minimum Humidity 38    
Precipitation  
Precipitation 0.00 in - - ()
Sea Level Pressure  
Sea Level Pressure 29.68 in    
Wind  
Wind Speed 4 mph (WNW)    
Max Wind Speed 23 mph    
Max Gust Speed 32 mph    
Visibility 9 miles    
Events      
Averages and records for this station are not official NWS values.
T = Trace of Precipitation, MM = Missing Value Source: NWS Daily Summary

Daily Weather History Graph

Daily Weather History Graph

Search for Another Location

Airport or City:

Trip Planner

Search our weather history database for the weather conditions in past years. The results will help you decide how hot, cold, wet, or windy it might be!

Date:

Astronomy

Jan. 11, 2012 Rise Set
Actual Time 7:31 AM CST 5:13 PM CST
Civil Twilight 7:02 AM CST 5:42 PM CST
Nautical Twilight 6:29 AM CST 6:15 PM CST
Astronomical Twilight 5:57 AM CST 6:47 PM CST
Moon 8:10 PM CST (1/11) 8:46 AM CST (1/11)
Length of Visible Light 10h 40m
Length of Day
9h 42m
Waning Gibbous, 93% of the Moon is Illuminated
Jan 11
Waning Gibbous
Jan 16
Last Quarter
Jan 23
New
Jan 30
First Quarter
Feb 7
Full

Hourly Weather History & Observations

Time (CST) Temp. Windchill Dew Point Humidity Pressure Visibility Wind Dir Wind Speed Gust Speed Precip Events Conditions
12:15 AM 32.0 °F - 28.4 °F 87% 29.74 in 10.0 mi Calm Calm - N/A   Scattered Clouds
12:35 AM 32.0 °F - 28.4 °F 87% 29.72 in 10.0 mi Calm Calm - N/A   Mostly Cloudy
12:55 AM 32.0 °F - 28.4 °F 87% 29.71 in 10.0 mi Calm Calm - N/A   Scattered Clouds
1:15 AM 32.0 °F - 28.4 °F 87% 29.70 in 10.0 mi Calm Calm - N/A   Clear
1:35 AM 30.2 °F 25.4 °F 26.6 °F 86% 29.69 in 10.0 mi NW 4.6 mph - N/A   Clear
1:55 AM 30.2 °F - 26.6 °F 86% 29.70 in 10.0 mi Calm Calm - N/A   Clear
2:15 AM 30.2 °F - 26.6 °F 86% 29.69 in 10.0 mi Calm Calm - N/A   Clear
2:35 AM 30.2 °F - 26.6 °F 86% 29.69 in 10.0 mi Calm Calm - N/A   Clear
3:15 AM 28.4 °F - 24.8 °F 86% 29.69 in 9.0 mi Calm Calm - N/A   Clear
3:35 AM 32.0 °F - 26.6 °F 80% 29.69 in 10.0 mi Calm Calm - N/A   Clear
3:55 AM 28.4 °F - 26.6 °F 93% 29.69 in 8.0 mi Calm Calm - N/A   Clear
4:15 AM 28.4 °F - 26.6 °F 93% 29.68 in 10.0 mi Calm Calm - N/A   Clear
4:35 AM 28.4 °F - 24.8 °F 86% 29.68 in 10.0 mi Calm Calm - N/A   Clear
4:55 AM 28.4 °F - 24.8 °F 86% 29.68 in 10.0 mi Calm Calm - N/A   Clear
5:15 AM 28.4 °F - 26.6 °F 93% 29.67 in 10.0 mi Calm Calm - N/A   Clear
5:35 AM 28.4 °F - 26.6 °F 93% 29.67 in 10.0 mi Calm Calm - N/A   Clear
5:55 AM 26.6 °F - 24.8 °F 93% 29.67 in 10.0 mi Calm Calm - N/A   Clear
6:15 AM 28.4 °F - 26.6 °F 93% 29.67 in 8.0 mi Calm Calm - N/A   Clear
6:35 AM 26.6 °F - 26.6 °F 100% 29.67 in 8.0 mi Calm Calm - N/A   Clear
6:55 AM 26.6 °F - 24.8 °F 93% 29.66 in 7.0 mi Calm Calm - N/A   Clear
7:15 AM 28.4 °F 21.2 °F 26.6 °F 93% 29.66 in 8.0 mi West 6.9 mph - N/A   Clear
7:35 AM 28.4 °F 21.2 °F 26.6 °F 93% 29.66 in 8.0 mi West 6.9 mph - N/A   Clear
7:55 AM 28.4 °F 24.6 °F 26.6 °F 93% 29.66 in 9.0 mi WSW 3.5 mph - N/A   Clear
8:15 AM 30.2 °F 24.3 °F 26.6 °F 86% 29.66 in 7.0 mi West 5.8 mph - N/A   Clear
8:35 AM 32.0 °F 25.6 °F 30.2 °F 93% 29.66 in 7.0 mi West 6.9 mph - N/A   Clear
8:55 AM 35.6 °F 29.9 °F 30.2 °F 81% 29.67 in 8.0 mi West 6.9 mph - N/A   Clear
9:15 AM 37.4 °F 32.1 °F 32.0 °F 81% 29.68 in 8.0 mi West 6.9 mph - N/A   Clear
9:35 AM 39.2 °F 35.9 °F 32.0 °F 75% 29.68 in 8.0 mi West 4.6 mph - N/A   Clear
9:55 AM 42.8 °F 40.1 °F 32.0 °F 66% 29.68 in 8.0 mi WSW 4.6 mph - N/A   Clear
10:15 AM 44.6 °F 43.1 °F 32.0 °F 61% 29.68 in 8.0 mi SW 3.5 mph - N/A   Clear
10:35 AM 46.4 °F 44.3 °F 32.0 °F 57% 29.68 in 8.0 mi South 4.6 mph - N/A   Clear
10:55 AM 48.2 °F - 32.0 °F 54% 29.68 in 9.0 mi South 3.5 mph - N/A   Clear
11:15 AM 50.0 °F - 32.0 °F 50% 29.67 in 9.0 mi SW 4.6 mph - N/A   Clear
11:35 AM 50.0 °F - 30.2 °F 47% 29.66 in 9.0 mi SW 5.8 mph - N/A   Clear
11:55 AM 51.8 °F - 30.2 °F 44% 29.65 in 10.0 mi Calm Calm - N/A   Clear
12:15 PM 53.6 °F - 30.2 °F 41% 29.63 in 9.0 mi SSW 3.5 mph - N/A   Clear
12:35 PM 53.6 °F - 30.2 °F 41% 29.62 in 9.0 mi SW 4.6 mph - N/A   Clear
12:55 PM 53.6 °F - 30.2 °F 41% 29.62 in 8.0 mi Calm Calm - N/A   Clear
1:15 PM 55.4 °F - 32.0 °F 41% 29.61 in 8.0 mi West 9.2 mph - N/A   Clear
1:35 PM 55.4 °F - 32.0 °F 41% 29.61 in 9.0 mi WSW 5.8 mph - N/A   Clear
1:55 PM 55.4 °F - 32.0 °F 41% 29.61 in 10.0 mi West 9.2 mph - N/A   Clear
2:15 PM 57.2 °F - 32.0 °F 38% 29.61 in 9.0 mi West 8.1 mph - N/A   Clear
2:35 PM 57.2 °F - 33.8 °F 41% 29.61 in 10.0 mi WNW 6.9 mph - N/A   Clear
2:55 PM 57.2 °F - 33.8 °F 41% 29.61 in 9.0 mi WNW 9.2 mph - N/A   Clear
3:15 PM 57.2 °F - 33.8 °F 41% 29.62 in 9.0 mi WNW 15.0 mph 18.4 mph N/A   Clear
3:35 PM 53.6 °F - 33.8 °F 47% 29.63 in 9.0 mi WNW 13.8 mph - N/A   Clear
3:55 PM 53.6 °F - 33.8 °F 47% 29.64 in 9.0 mi NW 16.1 mph - N/A   Clear
4:15 PM 51.8 °F - 33.8 °F 50% 29.65 in 8.0 mi NW 16.1 mph 20.7 mph N/A   Clear
4:35 PM 48.2 °F - 32.0 °F 54% 29.66 in 9.0 mi NW 15.0 mph 23.0 mph N/A   Clear
4:55 PM 46.4 °F 40.4 °F 32.0 °F 57% 29.68 in 8.0 mi NW 13.8 mph - N/A   Clear
5:15 PM 46.4 °F 40.7 °F 32.0 °F 57% 29.68 in 10.0 mi NW 12.7 mph 20.7 mph N/A   Clear
5:35 PM 44.6 °F 36.9 °F 33.8 °F 66% 29.70 in 10.0 mi NW 18.4 mph 26.5 mph N/A   Clear
5:55 PM 42.8 °F 34.8 °F 33.8 °F 70% 29.71 in 9.0 mi NNW 17.3 mph 27.6 mph N/A   Clear
6:15 PM 41.0 °F 31.4 °F 33.8 °F 76% 29.71 in 10.0 mi NNW 21.9 mph 28.8 mph N/A   Mostly Cloudy
6:35 PM 41.0 °F 31.9 °F 33.8 °F 76% 29.72 in 10.0 mi NNW 19.6 mph 25.3 mph N/A   Overcast
6:55 PM 39.2 °F 29.6 °F 32.0 °F 75% 29.73 in 10.0 mi NNW 19.6 mph 32.2 mph N/A   Overcast
7:15 PM 39.2 °F 28.7 °F 32.0 °F 75% 29.75 in 10.0 mi NNW 23.0 mph 27.6 mph N/A   Overcast
7:35 PM 37.4 °F 26.6 °F 30.2 °F 75% 29.77 in 10.0 mi NNW 21.9 mph 32.2 mph N/A   Overcast
7:55 PM 35.6 °F 24.8 °F 30.2 °F 81% 29.79 in 9.0 mi NW 19.6 mph 31.1 mph N/A   Overcast
8:15 PM 35.6 °F 24.0 °F 28.4 °F 75% 29.80 in 10.0 mi NNW 23.0 mph 29.9 mph N/A   Overcast
8:35 PM 33.8 °F 22.2 °F 26.6 °F 75% 29.82 in 10.0 mi NNW 20.7 mph 27.6 mph N/A   Overcast
8:55 PM 33.8 °F 22.2 °F 28.4 °F 81% 29.83 in 10.0 mi NW 20.7 mph 27.6 mph N/A   Overcast
9:15 PM 32.0 °F 19.5 °F 26.6 °F 80% 29.83 in 10.0 mi NNW 21.9 mph 27.6 mph N/A   Overcast
9:35 PM 32.0 °F 20.8 °F 23.0 °F 69% 29.84 in 10.0 mi NNW 17.3 mph 33.4 mph N/A   Overcast
9:55 PM 32.0 °F 20.1 °F 24.8 °F 75% 29.85 in 10.0 mi NNW 19.6 mph 25.3 mph N/A   Overcast
10:15 PM 32.0 °F 20.5 °F 28.4 °F 87% 29.86 in 3.0 mi NW 18.4 mph 24.2 mph N/A   Light Drizzle
10:35 PM 30.2 °F 17.4 °F 24.8 °F 80% 29.87 in 7.0 mi NW 20.7 mph 29.9 mph N/A Snow Light Snow
10:55 PM 28.4 °F 14.4 °F 24.8 °F 86% 29.89 in 1.0 mi NNW 23.0 mph 31.1 mph N/A Snow Light Snow
11:15 PM 28.4 °F 18.0 °F 24.8 °F 86% 29.89 in 0.8 mi NW 12.7 mph - N/A   Overcast
11:35 PM 26.6 °F 13.4 °F 23.0 °F 86% 29.90 in 1.2 mi NW 18.4 mph 27.6 mph N/A Snow Light Snow
11:55 PM 26.6 °F 13.1 °F 23.0 °F 86% 29.90 in 2.0 mi NW 19.6 mph 24.2 mph N/A Snow Light Snow